Powrót do katalogu

THORAD AGENA D DEB

AktywnyPO
NORAD 4921·DEBRIS·🇺🇸 United States

Wystrzelony Apr 8, 1970 z Vandenberg Space Force Base

Loading…

Następne Przeloty

TLE

Source: Space-Track
1 04921U 70025FT  26218.96637424  .00002610  00000-0  60605-3 0  9999
2 04921  99.7407  41.6940 0035533 292.4949  67.2484 14.55692005882978

Śledź THORAD AGENA D DEB w czasie rzeczywistym z AllMySat

Download on the App Store